Regional Weather Roundup
Issued by NWS

Home | Current Version | Previous Version | Graphics & Text | Print | Product List | Glossary On
Versions: 1 2 3 4 5 6 7 8 9 10 11 12 13 14 15 16 17 18 19 20 21 22 23 24 25 26 27 28 29 30 31 32 33 34 35 36 37 38 39 40 41 42 43 44 45 46 47 48 49 50
000
ASUS44 KMEG 061710
RWRTN
TENNESSEE HOURLY STATE WEATHER ROUNDUP
NATIONAL WEATHER SERVICE MEMPHIS TN
1200 PM CDT WED MAY 06 2015

TNZ002-004-019-021-049-052-054-088>092-061800-
WEST TENNESSEE

CITY           SKY/WX    TMP DP  RH WIND       PRES   REMARKS
MEMPHIS INTL   MOSUNNY   83  55  38 S12G18    30.14F
NWS MEMPHIS      N/A     82 N/A N/A MISG        N/A
JACKSON        SUNNY     81  54  39 SE6       30.16F
DYERSBURG      MOSUNNY   82  50  32 S7        30.16F
PARIS          SUNNY     81  55  41 S7        30.19F
LEXINGTON      SUNNY     81  54  39 SW5       30.17F
$$

TNZ008-025-027-028-033-062-065-066-061800-
NORTH MIDDLE TENNESSEE

CITY           SKY/WX    TMP DP  RH WIND       PRES   REMARKS
NASHVILLE      MOSUNNY   83  55  38 S3        30.20F
CLARKSVILLE    PTSUNNY   80  58  46 CALM      30.19F
SMYRNA         MOSUNNY   82  55  39 SW5       30.20F
COOKEVILLE     SUNNY     82  59  44 VRB5      30.21F
CROSSVILLE     MOSUNNY   76  50  40 CALM      30.24F
$$

TNZ061-075-076-078-094-096-097-061800-
SOUTH MIDDLE TENNESSEE

CITY           SKY/WX    TMP DP  RH WIND       PRES   REMARKS
FAYETTEVILLE     N/A     77  52  41 S6        30.21F
TULLAHOMA      MOSUNNY   79  50  36 S6        30.22F
WINCHESTER     MOSUNNY   81  52  36 VRB5      30.21F
MCMINNVILLE    SUNNY     81  55  41 VRB3      30.22F
COLUMBIA       MOSUNNY   82  55  39 S8        30.19F
SHELBYVILLE    MOSUNNY   81  55  41 CALM      30.22S
$$

TNZ017-018-042-046-047-061800-
NORTHEAST TENNESSEE

CITY           SKY/WX    TMP DP  RH WIND       PRES   REMARKS
TRI CITIES     MOSUNNY   80  57  45 VRB3      30.22F
$$

TNZ012-013-036-069-073-074-061800-
CENTRAL EAST TENNESSEE

CITY           SKY/WX    TMP DP  RH WIND       PRES   REMARKS
KNOXVILLE      MOSUNNY   79  55  43 N8        30.20F
OAK RIDGE      SUNNY     81  55  40 VRB6      30.21F
GATLINBURG     SUNNY     79  55  44 N6        30.19F
MORRISTOWN     SUNNY     79  57  47 VRB3      30.22F
$$

TNZ083-085-099-061800-
SOUTHEAST TENNESSEE

CITY           SKY/WX    TMP DP  RH WIND       PRES   REMARKS
CHATTANOOGA    MOSUNNY   79  52  38 VRB3      30.20F
$$

SKY/WX REPORTED AS FAIR MEANS FEW OR NO CLOUDS BELOW
12 THOUSAND FEET.



USA.gov is the U.S. government's official web portal to all federal, state and local government web resources and services.